Regional Weather Roundup
Issued by NWS

Home | Current Version | Previous Version | Text Only | Print | Product List | Glossary Off
Versions: 1 2 3 4 5 6 7 8 9 10 11 12 13 14 15 16 17 18 19 20 21 22 23 24 25 26 27 28 29 30 31 32 33 34 35 36 37 38 39 40 41 42 43 44 45 46 47 48 49 50

000
ASUS43 KMPX 250210
RWRMN
WEATHER ROUNDUP FOR MINNESOTA
NATIONAL WEATHER SERVICE TWIN CITIES/CHANHASSEN MN
900 PM CDT WED AUG 24 2016


NOTE: "FAIR" INDICATES FEW OR NO CLOUDS BELOW 12,000 FEET WITH NO
SIGNIFICANT WEATHER AND/OR OBSTRUCTIONS TO VISIBILITY. N/A MEANS
CURRENT SKY AND/OR WEATHER CONDITIONS ARE NOT AVAILABLE.

MNZ060>063-068>070-250300-
   Twin Cities Metro

CITY           SKY/WX    TMP DP  RH WIND       PRES   REMARKS
TWIN CITIES    CLOUDY    71  57  61 W6        29.98R
ST PAUL        CLOUDY    70  57  63 W6        29.98R
CRYSTAL        CLOUDY    70  56  61 W6        29.97R
BLAINE         CLOUDY    72  59  64 W5        29.98R
LAKEVILLE      PTCLDY    64  59  82 W5        29.99R
EDEN PRAIRIE   PTCLDY    69  59  70 W3        29.98R
LAKEVILLE      PTCLDY    64  59  82 W5        29.99R
SOUTH ST PAUL  MOCLDY    70  56  61 W3        29.98R
LAKE ELMO      FAIR      68  59  73 W3        29.99R
$$
MNZ001>005-007-008-013>017-022>024-027-028-250300-
   Northwest Minnesota

CITY           SKY/WX    TMP DP  RH WIND       PRES   REMARKS
BEMIDJI        CLEAR     63  54  72 SW5       29.93S
HALLOCK        PTCLDY    63  54  72 SW7       29.86S
ROSEAU         CLEAR     63  55  77 SW6       29.87R
WARROAD        PTCLDY    63  55  77 SW6       29.88R
THIEF RVR FALL PTCLDY    62  52  69 SW7       29.92R
CROOKSTON      CLEAR     63  54  72 W7        29.92R
FOSSTON        CLEAR     57  52  82 SW7       29.94R
DETROIT LAKES  CLEAR     64  54  68 W5        29.98R
MOORHEAD       CLEAR     63  54  72 W6        29.96R
PARK RAPIDS    CLEAR     60  53  77 W7        29.96R
MAHNOMEN       FAIR      62  51  68 SW8       29.95R
$$
MNZ006-009>011-018-025>026-250300-
   North Central Minnesota

CITY           SKY/WX    TMP DP  RH WIND       PRES   REMARKS
BAUDETTE       CLOUDY    61  53  75 SW6       29.88R
FLAG ISLAND    CLOUDY    66  52  59 W5        29.84R
INTL FALLS     PTCLDY    63  52  67 W6        29.87R
WASKISH        MOCLDY    68  55  64 SW10G16   29.90R
BIG FORK       PTCLDY    61  54  77 CALM      29.93R
LONGVILLE      CLEAR     59  55  88 CALM      29.96R
GRAND RAPIDS   CLEAR     66  54  65 CALM      29.97R
CRANE LAKE     CLEAR     64  54  68 W5        29.89R
ORR            CLEAR     63  52  67 CALM      29.88R
COOK           PTCLDY    66  55  68 W8        29.91R
WALKER         FAIR      62  55  76 SW5       29.94R
$$
MNZ012-019>021-037-250300-
   Northeast Minnesota

CITY           SKY/WX    TMP DP  RH WIND       PRES   REMARKS
DULUTH         CLOUDY    67  56  67 W9        29.92R
ELY            CLEAR     64  54  68 W8        29.89R
HIBBING        CLEAR     63  53  70 W6        29.93R
EVELETH        CLOUDY    65  53  64 W7        29.93R
DULUTH HARBOR  CLOUDY    73  61  64 W12       29.90R
TWO HARBORS    PTCLDY    72  59  64 W6        29.88R
SILVER BAY     CLOUDY    66  57  72 CALM      29.87R
GRAND MARAIS     N/A     66  59  78 NW5       29.82R
G MARAIS ARPRT PTCLDY    64  50  59 W3        29.88R
$$
MNZ029>031-032-039>041-046>048-054>057-064-250300-
   West Central Minnesota

CITY           SKY/WX    TMP DP  RH WIND       PRES   REMARKS
FERGUS FALLS   CLEAR     63  55  77 W3        29.99R
WHEATON        PTCLDY    66  59  77 SW5       30.00R
MORRIS         CLOUDY    64  57  77 SW5       29.99S
ALEXANDRIA     CLOUDY    64  56  75 SW5       30.01R
ELBOW LAKE     FAIR      64  56  78 CALM      29.99R
WADENA         CLEAR     61  54  77 CALM      29.97R
GLENWOOD       PTCLDY    64  55  72 W7        30.01R
APPLETON       PTCLDY    64  57  77 W3        29.99F HAZE
BENSON         PTCLDY    63  57  82 W5        30.00S
ORTONVILLE     CLEAR     64  55  72 CALM      30.00S
MADISON        MOCLDY    64  57  77 CALM      29.99F
WILLMAR        FAIR      66  61  82 W3        30.01S
$$
MNZ033>034-036-042>043-049>051-058-059-250300-
   Central Minnesota

CITY           SKY/WX    TMP DP  RH WIND       PRES   REMARKS
ST CLOUD       CLOUDY    66  59  78 NW3       29.98R
SAUK CENTRE    FAIR      64  57  77 W3        29.99S
PAYNESVILLE    CLOUDY    64  59  84 CALM      29.99S
AITKIN         CLOUDY    66  54  63 CALM      29.95S
PINE RIVER     PTCLDY    64  55  72 CALM      30.00R
BRAINERD       CLOUDY    68  55  63 CALM      29.97R
STAPLES        PTCLDY    63  54  72 CALM      29.97S
LONG PRAIRIE   FAIR      63  55  77 CALM      30.00R
LITTLE FALLS   MOCLDY    64  55  72 CALM      29.98S
LITCHFIELD     CLOUDY    68  61  77 SW3       30.00R
BUFFALO        CLOUDY    68  58  70 W3        30.00R
MAPLE LAKE     CLOUDY    68  59  73 W3        30.00R
HUTCHINSON     CLEAR     65  62  88 W3        30.01S
$$
MNZ037-044-045-052-053-250300-
   East Central Minnesota

CITY           SKY/WX    TMP DP  RH WIND       PRES   REMARKS
PRINCETON      CLOUDY    66  59  77 W3        29.98R
MORA           CLOUDY    64  57  77 W3        29.98R
CAMBRIDGE      CLOUDY    70  57  64 W3        29.96R
RUSH CITY      CLOUDY    66  58  74 SW3       29.96R
MOOSE LAKE     CLOUDY    64  55  72 W3        29.92S
HINCKLEY       FAIR      64  61  88 W3        29.96R
CLOQUET        CLOUDY    66  54  63 W7        29.93S
MCGREGOR       MOCLDY    66  55  68 CALM      29.95F
$$
MNZ071>073-080-081-089-090-097-098-250300-
   Southwest Minnesota

CITY           SKY/WX    TMP DP  RH WIND       PRES   REMARKS
MONTEVIDEO     CLOUDY    66  57  72 N5        30.00F
GRANITE FALLS  CLOUDY    68  63  84 CALM      30.01F
CANBY          CLOUDY    67  57  70 W3        30.02S
MARSHALL       CLOUDY    66  59  78 SW8       30.03R
REDWOOD FALLS  CLOUDY    68  60  75 W5        30.00S
OLIVIA         CLOUDY    63  59  88 SW3       30.00S
PIPESTONE      MOCLDY    64  61  88 SW5       30.06S
WINDOM         PTCLDY    66  59  77 W6        30.04S
WORTHINGTON    CLOUDY    64  60  87 W7        30.06S
JACKSON        CLOUDY    64  59  82 W3        30.05F
TRACY          CLOUDY    66  61  84 SW6       30.04R
SLAYTON        CLOUDY    63  59  88 SW6       30.06R
$$
MNZ065>067-074>077-082>085-091>093-250300-
   South Central Minnesota

CITY           SKY/WX    TMP DP  RH WIND       PRES   REMARKS
MANKATO        CLOUDY    66  61  82 W5        30.01R
NEW ULM          N/A     66  64  94 SW3       30.01R
ST JAMES       PTCLDY    61  57  88 SW3       30.02F
FAIRMONT       PTCLDY    66  61  84 SW5       30.03F
GLENCOE        CLOUDY    67  63  86 CALM      29.99S
FARIBAULT      CLOUDY    64  61  88 CALM      30.01R
OWATONNA       CLOUDY    66  61  82 SW3       30.01R
WASECA         CLOUDY    63  59  88 SW3       30.02S
ALBERT LEA     PTCLDY    68  63  83 CALM      30.02S
$$
MNZ078>079-086>088-094>096-250300-
   Southeast Minnesota

CITY           SKY/WX    TMP DP  RH WIND       PRES   REMARKS
ROCHESTER      CLOUDY    67  62  84 W7        30.01R
RED WING       CLOUDY    70  59  68 CALM      29.96S
STANTON        CLOUDY    66  61  82 CALM      29.98S
DODGE CENTER   CLOUDY    66  61  82 W5        30.02R
WINONA         CLOUDY    70  61  73 N5        29.97R
AUSTIN         PTCLDY    70  61  73 W3        30.02R
PRESTON        MOCLDY    66  60  80 W7        30.02R
$$
ABBREVIATIONS USED IN REMARKS
   TC - TEMPERATURES IN CELSIUS
  WCI - WIND CHILL INDEX
   HX - HEAT INDEX
  VSB - VISIBILITY
$$



USA.gov is the U.S. government's official web portal to all federal, state and local government web resources and services.